Wind_Speed
14 8 12 18 20 20 19 23 26 28 33 33 29 27 27 27 26 25 24 25 25 27 27 29 29 27 38 41 37 37 42 25 26 24 15 10 11 15 15 17 20 19 19
9 11 15 14 14 16 18 21 25 28 33 31 29 20 24 23 25 25 25 26 27 27 27 30 30 30 32 42 45 39 30 24 30 16 19 4 4 11 14 18 20 19 19
7 12 13 17 15 16 16 18 23 25 30 27 26 17 21 15 22 23 22 25 27 25 26 28 29 29 33 35 43 40 32 22 26 25 15 5 5 13 15 19 19 20 19
7 11 14 14 17 17 16 17 20 25 28 29 28 25 23 18 18 21 20 23 24 24 29 30 31 35 34 35 36 38 31 32 25 25 13 14 16 6 5 15 19 19 21
10 12 14 18 23 12 15 18 21 25 28 30 27 25 19 15 13 15 15 22 23 23 30 29 32 37 37 41 44 42 37 38 31 27 17 14 17 13 5 7 12 19 21
10 12 17 20 21 10 13 17 22 26 29 29 28 29 22 18 16 15 17 17 23 23 25 30 32 42 41 39 37 37 36 36 34 31 27 21 12 8 5 3 12 15 14
10 12 16 17 22 17 16 18 23 26 29 30 31 29 22 18 17 17 17 18 22 22 19 32 36 42 45 46 39 35 32 33 32 32 27 27 25 25 12 4 4 6 10
10 13 14 16 22 25 19 21 24 25 28 30 29 25 21 18 16 16 14 16 17 18 19 29 33 38 40 39 38 35 33 37 32 34 31 31 25 23 17 7 8 4 4
14 16 16 17 25 27 18 22 23 24 26 26 25 23 21 19 18 16 16 16 15 16 20 26 31 34 38 34 36 34 37 39 38 35 34 31 28 22 24 28 21 13 5
16 16 16 18 29 28 18 22 24 24 25 25 21 21 20 19 17 16 17 15 13 14 16 23 31 36 36 40 42 39 35 39 38 37 35 24 23 24 31 31 24 19 13
16 18 18 29 32 29 18 23 25 24 25 25 22 22 19 19 17 16 16 16 14 12 14 21 28 31 32 37 38 40 38 34 35 34 34 30 25 26 24 20 18 24 16
16 17 18 24 35 14 18 21 22 23 24 24 21 21 17 18 18 17 17 16 17 15 15 20 25 28 29 36 38 37 37 36 31 32 33 31 32 24 24 24 27 30 26
16 15 18 21 23 9 14 17 19 20 22 24 22 21 18 18 18 16 17 17 17 18 16 21 25 27 30 31 32 33 36 36 31 40 32 31 29 30 23 25 31 23 28
13 15 17 19 23 6 13 16 17 21 22 21 19 18 18 18 18 17 18 18 18 19 21 24 25 26 28 29 32 32 35 39 37 36 35 34 33 38 32 32 25 29 25
14 15 14 15 18 18 7 11 15 19 20 19 18 17 17 16 17 18 19 19 19 21 21 21 25 28 29 30 29 30 28 29 31 32 35 34 37 39 40 33 33 29 27
15 14 9 10 15 21 20 1 14 15 19 18 17 16 17 16 16 18 19 18 19 19 20 22 24 23 23 29 35 33 28 28 28 30 33 34 34 34 34 33 34 32 28
15 16 16 15 19 21 21 15 1 21 18 18 19 18 16 17 17 16 17 18 19 20 20 20 22 25 25 28 32 35 29 32 31 30 30 31 34 35 35 32 32 34 34
14 13 13 19 23 24 24 21 15 12 13 13 12 14 16 18 18 18 18 17 18 22 22 23 26 26 28 27 28 32 32 27 28 30 30 31 31 40 38 32 24 18 15
11 13 15 17 17 24 28 23 25 22 22 18 19 10 7 5 14 20 21 20 20 20 23 23 26 27 28 29 30 31 36 32 32 31 30 28 28 33 35 32 22 12 13
15 16 16 18 26 28 22 17 23 26 24 20 14 10 10 7 6 3 10 24 23 23 22 16 16 19 19 22 30 32 36 35 29 28 30 31 30 33 35 30 30 26 24
16 17 18 19 23 24 21 24 25 24 17 13 14 17 17 13 12 7 4 6 15 17 16 16 12 8 5 10 17 31 29 25 22 17 11 9 9 16 16 19 23 26 30
16 18 15 17 21 22 19 22 22 17 18 19 21 22 22 20 17 14 13 10 14 21 21 22 22 19 16 10 10 7 5 16 16 23 26 28 28 26 25 28 33 32 30
16 18 17 18 22 21 19 19 17 16 20 25 26 26 26 25 24 24 21 21 18 21 19 20 21 22 26 30 28 26 28 31 36 37 41 40 39 39 36 35 33 30 29
16 17 17 18 20 24 21 14 14 16 21 24 23 24 28 28 28 27 26 22 20 19 19 20 20 20 21 21 25 33 36 39 44 36 39 41 41 40 36 33 29 28 25
16 16 15 16 17 14 15 16 16 15 19 21 22 23 23 27 34 39 30 30 29 22 23 22 22 22 24 22 24 29 30 31 34 36 36 33 34 32 30 29 28 24 21
16 16 17 17 18 18 18 17 15 14 16 20 20 19 19 22 26 31 38 45 43 41 38 35 36 34 33 31 30 32 31 34 37 34 27 25 23 23 21 21 20 17 17
Wind_Direction
267 287 278 286 281 270 232 213 200 198 189 190 186 195 199 206 214 219 225 228 222 215 211 212 211 191 188 182 173 164 166 166 162 146 137 152 174 188 184 191 198 196 198
295 313 316 290 269 259 230 211 204 195 193 191 190 192 191 204 209 219 222 223 212 217 216 217 217 211 191 180 180 166 161 162 165 162 150 142 152 199 199 202 204 203 203
316 332 334 323 284 254 230 212 204 196 196 190 181 177 184 195 202 212 211 211 212 221 222 218 206 192 184 171 168 165 167 154 174 171 160 157 179 171 205 210 209 207 209
349 343 336 326 320 269 230 214 209 195 193 183 180 184 188 195 202 208 208 212 215 222 215 209 201 180 164 162 164 165 162 166 173 183 186 179 149 177 168 212 212 213 216
343 333 335 328 330 270 221 207 197 199 191 185 185 182 193 196 193 195 199 213 215 210 212 207 201 177 176 174 178 184 181 185 184 187 182 173 162 160 149 178 204 214 220
343 339 340 341 342 296 224 203 192 198 191 183 183 183 187 189 193 198 207 205 210 206 208 207 200 185 182 180 180 182 181 184 190 191 181 168 165 166 130 139 191 212 213
340 343 344 344 332 315 235 209 196 196 192 184 185 185 188 189 193 193 196 201 209 212 194 194 197 195 192 189 185 185 188 192 192 189 178 179 166 169 189 171 138 194 213
337 335 342 339 328 328 240 212 202 195 194 188 188 183 186 187 190 192 200 206 206 206 202 201 201 199 191 186 190 187 188 186 191 190 185 184 177 170 178 201 185 172 171
339 332 331 337 328 327 254 213 202 197 193 195 182 186 182 185 192 193 197 199 202 200 201 207 203 201 192 186 186 186 189 194 193 193 194 193 185 183 206 235 251 218 228
337 335 324 333 324 315 257 207 197 194 189 189 191 190 180 185 191 186 189 189 192 195 193 203 204 200 189 189 185 185 190 187 196 198 193 193 196 200 210 217 243 264 216
340 335 335 336 322 304 228 200 191 188 184 182 188 187 179 185 186 185 187 188 188 202 196 200 199 194 190 187 185 187 189 189 196 196 199 205 195 216 213 212 225 226 231
351 348 350 337 317 262 190 191 183 184 181 179 178 179 178 183 184 187 189 186 188 207 196 197 196 192 189 188 187 188 191 194 191 190 205 212 214 236 227 237 238 229 237
0 357 355 342 326 194 176 178 176 176 173 174 171 173 180 183 187 192 192 191 184 201 192 191 191 190 192 189 188 185 189 196 194 202 208 211 214 222 225 235 230 239 247
6 7 0 345 331 236 179 170 166 167 167 164 163 167 178 186 187 193 196 194 192 188 192 191 187 188 186 187 189 185 186 192 198 204 209 212 216 218 229 242 243 245 247
6 12 7 341 328 353 2 142 160 162 164 152 157 169 184 186 187 195 200 197 195 195 196 191 192 193 192 190 187 192 195 194 198 202 211 216 223 225 226 232 238 244 251
360 0 2 313 339 357 357 223 155 150 153 152 159 172 180 192 194 197 202 200 202 203 199 199 199 197 199 202 203 199 198 201 205 212 218 224 231 236 244 249 254 252 244
353 353 347 356 346 354 352 360 231 153 156 158 167 177 190 192 199 203 206 207 205 207 209 209 206 205 206 213 215 217 214 218 223 226 226 230 236 243 245 247 248 249 254
355 356 347 346 355 357 4 11 64 129 143 159 167 173 190 201 205 202 209 212 211 208 209 213 218 218 224 226 222 220 218 220 224 225 228 229 234 242 244 240 233 234 248
357 359 354 355 354 8 12 13 46 54 58 51 47 34 91 196 210 202 208 214 210 212 213 217 222 219 224 233 230 227 223 222 226 228 232 233 233 245 248 236 213 174 121
4 5 4 2 16 18 22 25 44 44 41 36 30 24 37 39 27 355 221 217 212 216 217 201 209 217 217 225 233 232 226 224 224 225 235 239 241 246 249 225 203 154 139
10 9 26 26 23 19 17 30 34 36 32 39 43 42 42 38 30 10 347 231 207 196 156 138 113 116 169 222 234 234 226 222 207 203 205 218 212 175 163 169 155 137 134
7 16 23 36 41 30 31 38 36 28 37 43 46 46 47 46 43 47 50 75 122 121 111 104 86 76 68 60 66 79 211 198 157 108 102 110 127 127 129 116 109 117 120
11 12 18 24 40 38 37 40 32 43 52 52 48 46 51 53 54 54 55 66 89 90 85 87 85 77 77 83 93 112 124 121 109 109 109 104 97 97 97 111 124 122 118
20 17 20 25 27 30 30 30 41 52 61 63 58 55 53 53 54 54 55 56 64 78 85 88 88 84 77 79 90 92 93 101 107 102 100 105 106 106 109 107 103 103 103
21 25 29 33 35 37 32 31 37 54 64 68 66 63 62 64 65 61 60 66 67 80 87 84 86 87 80 85 100 102 100 102 104 104 100 95 93 89 90 92 96 97 93
25 30 32 33 34 38 41 40 48 63 79 72 68 66 71 72 75 77 73 69 78 82 84 87 92 92 96 95 95 99 105 111 116 103 98 96 98 103 107 106 103 100 99
Height
706 709 709 706 705 703 703 704 709 714 721 726 731 738 741 746 749 753 757 760 763 765 769 771 775 776 780 783 792 795 798 816 821 828 835 842 846 850 851 855 859 862 865
705 704 703 702 700 698 697 699 703 708 713 719 726 732 737 741 745 749 752 755 758 761 764 767 770 773 777 779 787 793 802 810 815 820 830 841 848 848 850 854 857 860 863
706 702 699 697 695 693 694 696 698 702 710 715 722 728 734 739 741 745 747 750 754 757 760 764 765 768 772 776 778 787 795 801 813 819 820 834 837 843 849 852 854 856 859
703 700 697 692 690 689 690 692 696 698 704 709 715 722 725 731 734 739 743 747 750 753 756 758 761 764 771 776 779 786 792 798 809 818 819 823 824 833 843 848 849 852 855
702 700 696 691 685 682 683 687 690 696 699 704 710 715 723 728 732 737 740 742 747 749 752 755 759 760 768 773 778 785 792 798 807 812 815 820 823 827 831 836 845 849 850
698 694 690 685 681 681 682 685 687 691 696 700 705 709 718 723 729 733 736 739 742 746 749 752 756 759 766 770 777 783 788 793 804 809 810 813 818 823 826 832 838 841 843
693 689 685 681 678 678 680 681 685 688 692 696 700 704 712 719 724 729 733 735 739 742 744 747 751 756 761 766 774 780 787 794 799 804 806 812 815 818 826 829 832 835 838
690 686 682 680 677 673 674 677 681 685 690 693 697 702 709 715 721 726 729 733 736 739 742 744 747 753 757 762 769 775 782 787 795 800 804 808 810 815 821 827 829 833 836
685 682 679 676 673 670 670 673 678 683 686 694 695 700 704 711 718 722 726 730 733 736 738 741 744 748 754 759 765 772 777 784 789 796 801 805 808 811 819 825 828 827 829
685 680 675 670 670 667 666 670 674 679 684 690 696 699 700 708 715 719 724 728 731 733 736 738 741 744 748 754 760 767 776 780 788 792 795 799 807 807 815 820 823 825 824
685 679 671 667 664 661 660 665 670 675 679 685 692 696 699 706 713 717 722 726 729 733 734 735 738 741 746 750 755 761 768 775 783 785 790 797 801 811 812 813 818 823 822
686 681 672 669 656 649 655 661 666 671 677 682 689 693 699 706 711 715 720 724 726 732 733 734 737 740 744 748 751 757 765 772 777 781 790 796 801 805 805 810 814 816 816
683 680 673 675 663 653 654 658 662 669 675 680 685 689 698 704 709 714 719 722 724 729 733 734 736 739 743 748 752 756 761 768 772 780 787 791 795 801 803 807 810 809 812
685 682 676 680 670 657 655 656 661 668 674 677 683 689 696 702 705 712 717 720 723 726 730 733 736 738 741 745 749 754 759 764 770 777 781 785 790 793 798 802 803 805 808
688 687 687 689 681 667 659 656 663 668 673 677 682 688 695 699 703 708 713 716 720 724 728 731 734 738 740 743 746 752 757 762 767 771 775 781 784 787 792 795 797 799 801
698 698 701 698 684 672 667 662 664 667 672 677 683 688 692 698 701 705 710 714 717 721 725 728 731 735 738 742 745 749 753 759 764 768 772 776 780 784 787 790 792 793 793
705 702 696 691 689 681 674 666 665 667 672 677 681 685 689 695 699 703 708 711 714 717 721 724 727 730 733 736 741 746 751 755 758 763 767 771 774 777 780 782 784 785 786
714 709 705 696 690 684 677 672 664 667 673 678 682 684 688 692 696 700 704 707 710 712 716 719 722 725 728 732 736 740 745 750 753 756 759 763 766 768 771 774 776 777 777
722 720 715 706 700 689 679 679 673 675 676 679 681 689 689 691 693 696 699 702 706 709 711 714 717 720 723 726 729 735 739 742 744 748 752 756 759 759 763 766 768 771 775
728 722 718 710 696 690 695 694 683 682 686 688 692 696 690 690 691 693 695 697 700 703 707 711 713 715 719 720 725 727 730 732 737 739 743 746 750 751 753 755 757 764 771
732 727 721 716 711 704 703 696 692 694 698 699 699 695 692 692 693 695 694 693 696 698 702 706 710 712 714 715 717 720 724 726 727 732 736 738 741 746 753 756 756 762 769
733 730 728 724 719 717 712 708 709 709 706 702 699 698 697 697 698 697 696 694 695 698 704 707 712 715 716 717 716 717 719 722 726 734 741 743 738 744 749 756 766 770 776
739 734 729 727 723 724 723 720 719 716 711 707 706 706 706 704 703 701 701 701 702 705 710 714 718 722 723 723 723 721 721 727 731 735 741 747 753 754 761 762 768 771 777
743 740 737 733 730 724 726 729 725 721 716 714 717 716 716 714 711 710 709 710 711 714 717 721 725 729 731 732 733 731 735 735 732 747 749 751 753 758 768 775 780 783 786
748 745 744 742 740 737 736 730 728 725 723 723 724 724 726 725 722 719 721 722 722 723 724 728 731 734 736 740 741 737 742 748 747 752 756 763 763 769 776 781 783 791 794
754 751 749 747 744 741 740 739 736 734 731 729 731 733 736 735 732 731 735 734 733 733 736 737 737 743 746 749 750 749 755 755 756 758 767 771 774 778 782 785 787 793 797